Vorticity
6 6 6 5 5 5 5 5 5 5 5 5 5 5 5 5 5 5 6 6 6 6 6 6 7 7 7 7 7 8 8 8 7 7 7 7 6 6 6 6 6 6 6 6 6 6 6 6 6 6 6 5 5 5 5 5 5 5 4 4 4 4 4 4 4 5 5 5 6 6 6 6 6 6 5 5 5 5 5 5 6 6 6 7 7 7 7 6 6 6 6 6 6 6 7 7 8 9 9 10 10 11 12
6 6 6 6 5 5 5 5 5 5 5 5 5 5 5 5 5 5 5 5 6 6 6 6 6 6 7 7 7 7 7 7 7 7 7 7 7 6 6 6 6 6 6 6 7 7 7 6 6 6 6 6 5 5 5 5 5 5 5 5 5 5 5 4 5 5 5 5 5 5 5 5 5 5 5 5 5 5 5 5 5 6 6 6 6 7 7 6 6 6 5 5 5 6 6 6 7 7 8 9 9 9 10
6 6 6 6 6 5 5 5 5 5 5 5 5 5 5 5 5 5 5 5 5 5 5 6 6 6 6 7 7 7 7 7 7 7 7 7 7 7 7 7 7 7 7 7 7 7 7 7 7 6 6 6 6 5 5 5 5 5 5 5 5 5 5 5 5 5 4 5 5 5 5 5 5 5 5 5 5 5 5 5 5 5 5 6 6 6 6 7 6 6 6 5 5 5 5 6 6 7 7 8 8 8 9
6 6 6 6 6 5 5 5 5 5 5 5 5 5 5 5 5 5 5 4 5 5 5 5 6 6 6 6 7 7 7 7 7 7 7 7 7 7 7 7 7 7 7 7 7 7 7 7 7 7 6 6 6 6 6 6 6 6 6 6 6 6 6 5 5 5 5 4 4 4 5 5 5 5 5 5 5 5 5 5 5 5 5 5 6 6 6 6 6 6 6 6 5 5 5 5 5 6 6 7 7 8 8
7 7 6 6 6 6 6 6 5 5 5 5 5 5 5 5 4 4 4 4 4 4 5 5 5 6 6 7 7 7 7 8 8 8 7 7 7 7 7 7 7 7 7 7 8 8 8 7 7 6 6 6 6 6 6 6 6 6 6 6 6 6 6 6 5 5 5 5 4 4 5 5 5 5 5 5 5 5 5 5 5 5 5 5 5 5 5 6 6 6 6 6 6 5 5 5 5 5 6 6 6 7 8
7 7 6 6 6 6 6 6 6 5 5 5 5 5 4 4 4 4 4 4 4 4 5 5 5 6 6 7 7 8 8 8 8 8 8 8 7 7 7 7 7 7 7 8 8 7 7 7 6 6 6 6 6 6 6 7 7 7 7 7 7 7 6 6 6 6 5 5 5 5 5 5 5 5 5 6 6 6 6 6 6 6 5 5 5 5 6 6 6 6 6 6 6 6 6 5 5 5 5 5 5 6 6
7 7 6 6 6 6 6 6 6 6 5 5 5 5 4 4 4 4 4 4 4 4 5 5 6 6 7 7 8 8 8 8 9 8 8 8 8 8 7 7 7 8 8 8 7 7 7 6 6 6 6 6 6 6 7 7 8 8 8 8 7 7 7 6 6 6 6 6 5 5 5 5 6 6 6 6 6 6 6 6 6 6 6 6 6 6 6 6 6 6 6 7 7 7 6 6 6 5 5 5 5 5 6
7 7 7 6 6 6 6 6 6 6 6 5 5 5 5 4 4 4 4 4 4 4 5 5 6 6 7 7 8 8 9 9 9 9 9 9 8 8 8 8 8 8 8 8 7 7 7 6 6 6 6 6 7 7 8 8 8 8 8 8 8 7 7 7 6 6 6 6 6 6 6 6 6 6 6 6 6 6 7 7 7 7 7 7 6 6 6 6 6 7 7 7 7 8 8 7 7 7 6 6 6 6 6
7 7 7 7 6 6 6 6 6 6 6 5 5 5 4 4 4 4 4 4 4 4 5 5 6 7 7 8 9 9 9 9 9 9 9 9 9 9 8 8 8 8 8 8 8 7 7 7 7 7 7 7 7 8 8 8 8 8 8 8 8 7 7 7 7 7 6 7 7 7 7 7 7 7 7 7 7 7 7 7 7 7 7 7 7 7 7 7 7 7 7 8 8 8 9 9 9 8 8 8 7 7 7
7 7 7 7 7 6 6 6 6 6 6 5 5 5 4 4 4 4 4 4 4 4 5 6 6 7 8 9 9 9 9 9 9 9 9 9 9 9 9 9 9 9 8 8 8 8 7 7 7 7 8 8 8 8 8 8 8 8 8 8 8 7 7 7 7 7 7 7 7 7 8 8 8 8 8 8 8 8 8 8 7 7 7 7 8 8 8 8 8 8 8 8 9 9 9 9 10 10 9 9 9 9 9
8 7 7 7 7 7 7 6 6 6 6 5 5 5 4 4 4 4 4 4 4 4 5 6 7 8 8 9 9 9 9 9 9 9 9 9 9 9 9 9 9 9 9 8 8 8 7 7 8 8 8 8 9 9 8 8 8 8 8 8 8 8 8 8 8 8 8 8 8 8 8 8 8 8 8 8 8 8 7 7 7 7 7 7 7 8 8 8 9 9 9 9 9 9 9 9 9 9 10 10 10 9 9
8 8 8 7 7 7 7 6 6 6 5 5 5 5 4 4 4 4 4 4 4 5 5 6 7 8 9 9 9 9 9 9 9 9 9 9 9 9 9 9 9 9 9 8 8 8 8 8 8 8 9 9 9 8 8 8 8 8 8 8 8 8 8 8 8 9 9 9 9 9 9 9 8 8 8 8 7 7 7 7 7 7 7 7 7 7 8 8 8 9 9 9 9 9 9 9 9 9 9 9 9 9 9
8 8 8 8 7 7 7 6 6 6 5 5 5 5 4 4 4 4 4 4 4 5 6 7 8 8 9 9 9 9 9 9 8 8 8 8 9 9 9 9 9 9 8 8 8 8 8 8 8 8 9 9 8 8 8 8 8 8 8 8 8 8 8 9 9 9 9 10 10 9 9 9 9 9 8 8 8 8 8 8 8 8 8 8 8 8 8 8 8 8 9 9 9 9 9 9 9 9 9 8 9 9 9
8 8 8 8 7 7 7 6 6 6 5 5 5 5 4 4 4 4 4 4 5 5 6 7 8 9 9 9 9 9 9 8 8 8 8 8 8 9 9 9 9 8 8 8 8 8 8 8 8 8 8 8 8 8 8 8 8 8 8 8 8 9 9 9 10 10 10 10 10 10 10 10 10 10 9 9 9 9 9 9 9 9 9 9 9 9 8 8 8 8 8 8 8 8 8 9 9 9 9 9 9 9 9
8 8 8 8 7 7 6 6 6 6 5 5 5 5 4 4 4 4 4 4 5 6 7 7 8 9 9 9 9 8 8 8 8 8 8 8 9 9 9 9 8 8 8 8 8 8 8 8 8 8 8 8 8 7 7 8 8 8 8 9 9 9 10 10 10 10 10 10 10 10 10 10 10 10 10 10 10 10 10 10 10 10 10 9 9 9 8 8 8 7 7 7 7 7 7 8 8 8 8 9 9 9 9
8 8 8 8 7 7 6 6 6 6 5 5 5 5 4 4 4 4 4 4 5 6 7 8 8 9 9 9 8 8 8 8 8 8 8 8 9 9 9 8 8 8 8 8 8 8 8 8 8 8 8 8 7 7 7 8 8 8 9 9 10 10 10 10 10 10 10 10 10 10 10 10 10 10 11 10 10 10 10 10 9 9 9 9 8 8 8 8 7 7 7 7 7 7 7 7 7 7 8 8 8 9 9
8 8 8 7 7 7 6 6 6 6 6 5 5 4 4 4 4 4 4 4 5 6 7 8 8 9 9 8 8 8 7 7 8 8 8 8 9 9 8 8 8 8 8 8 8 8 8 8 8 8 8 7 7 7 8 8 9 9 9 10 10 10 11 11 11 10 10 10 10 10 10 10 10 10 10 10 10 9 9 9 8 8 8 8 8 8 8 8 8 8 7 7 7 7 7 7 7 7 7 7 8 8 8
8 8 7 7 7 6 6 6 6 6 6 5 5 4 4 4 4 4 4 5 6 6 7 8 9 9 8 8 8 7 7 7 8 8 8 8 8 8 8 8 8 8 8 8 8 8 8 8 8 8 8 8 7 8 8 8 9 9 9 10 10 11 11 11 10 10 10 9 9 9 9 9 9 9 8 8 8 8 8 8 8 8 8 8 8 8 8 8 8 8 8 8 8 7 7 7 7 7 7 7 7 7 7
8 8 7 7 7 6 6 6 6 6 6 5 5 4 4 4 4 4 4 5 6 7 7 8 8 8 8 8 7 7 7 7 8 8 8 8 8 8 8 8 8 8 8 8 8 8 8 8 8 8 8 8 8 8 8 9 9 9 10 10 10 11 11 10 10 10 9 9 8 8 8 8 7 7 7 7 7 7 7 7 7 8 8 8 8 8 8 8 8 8 8 8 8 8 8 7 7 7 7 7 7 7 7
8 8 7 7 7 6 6 6 6 6 6 5 4 4 4 4 4 4 4 5 6 7 8 8 8 8 8 7 7 7 7 7 8 8 8 8 8 8 8 7 7 8 8 8 8 8 8 8 8 8 8 8 8 8 9 9 9 10 10 10 11 11 10 10 9 9 8 8 8 7 7 7 7 7 7 7 7 7 7 7 7 7 7 8 8 8 8 8 8 8 9 9 9 9 8 8 8 8 7 7 7 7 7
8 8 8 7 7 6 6 6 6 6 5 5 4 4 4 4 4 4 5 5 6 7 8 8 8 8 8 7 7 7 7 8 8 8 8 8 8 8 7 7 7 8 8 8 8 8 8 8 8 8 8 8 8 9 9 9 10 10 11 11 11 10 10 9 8 8 7 7 7 7 7 7 7 7 7 7 7 7 7 7 7 7 7 7 8 8 8 8 8 9 9 9 9 9 9 9 9 9 9 8 8 8 7
8 8 8 7 7 6 6 6 6 6 6 5 4 4 4 4 4 4 5 6 6 7 8 8 8 8 7 7 7 7 7 8 8 8 8 8 8 7 7 7 7 7 8 7 7 8 8 8 8 8 8 8 8 9 9 10 10 11 11 11 10 10 9 8 7 7 7 7 7 7 7 7 7 7 7 6 6 6 6 6 6 6 7 7 7 7 7 7 8 8 8 9 9 9 10 10 10 10 10 10 10 10 9
8 8 7 7 7 7 6 6 6 6 6 5 4 4 4 4 4 4 5 6 6 7 8 8 8 8 7 7 7 7 7 8 8 8 8 8 8 7 7 7 7 7 7 7 7 7 8 8 8 8 8 8 8 9 10 10 11 11 11 10 10 9 8 7 7 7 7 7 7 6 6 6 6 6 6 6 6 6 6 6 6 6 7 7 7 7 7 7 7 8 8 8 8 9 9 9 10 10 10 10 10 11 11
7 7 7 7 7 6 6 6 6 6 5 5 5 4 4 4 4 4 5 6 6 7 8 8 8 8 7 7 7 7 7 8 8 8 8 7 7 7 7 7 7 7 7 7 7 7 7 8 8 8 8 8 9 10 11 11 11 11 10 9 9 8 8 8 8 8 7 7 7 6 6 6 6 6 6 6 6 6 6 6 6 6 7 7 7 7 7 7 7 8 8 8 8 8 8 8 8 9 9 9 10 10 10
7 7 7 7 6 6 6 6 6 6 5 5 4 4 4 4 5 5 5 6 6 7 8 8 8 8 7 7 7 7 8 8 9 9 8 8 7 7 7 7 7 7 7 7 7 7 7 7 7 8 8 8 9 10 11 11 10 10 9 8 8 8 8 8 8 8 7 7 6 6 6 6 5 5 6 6 6 6 6 6 7 7 7 7 8 8 8 8 8 8 8 8 8 8 8 8 8 8 8 8 8 9 9
7 7 7 7 7 6 6 6 6 6 5 5 4 4 4 4 5 5 6 6 7 7 8 8 8 7 7 7 7 8 8 8 9 8 8 8 7 7 7 7 7 7 7 7 7 7 7 7 7 8 8 9 10 11 11 10 9 8 7 7 8 8 8 8 8 7 7 6 6 6 5 5 6 6 6 6 6 6 7 7 7 8 8 8 8 8 8 8 8 8 9 8 8 8 8 8 8 8 8 8 8 8 8
7 7 7 7 7 6 6 6 6 6 5 5 5 5 4 5 5 5 6 6 7 7 7 8 8 8 8 8 8 8 8 8 8 8 8 7 7 7 7 7 7 7 7 7 7 7 7 7 8 8 9 10 10 11 10 9 8 7 7 7 8 8 7 7 7 6 6 6 6 5 6 6 6 6 6 7 7 7 7 8 8 8 8 8 8 8 8 9 9 9 9 9 9 9 9 9 8 8 8 8 8 7 7
7 7 7 7 7 6 6 6 6 6 5 5 5 5 5 5 5 5 6 6 7 7 7 8 8 8 8 8 8 8 8 8 8 8 8 7 7 6 6 6 7 7 7 7 7 8 8 8 9 9 10 11 11 10 9 8 8 8 8 7 7 7 6 6 6 6 5 5 6 6 6 6 6 7 7 7 7 7 8 8 8 8 8 8 8 8 8 8 8 8 8 9 9 9 9 9 9 8 8 8 8 8 7
8 8 7 7 7 7 7 6 6 6 5 5 5 5 5 5 5 5 6 6 6 7 7 8 8 8 8 8 8 9 9 8 8 8 7 7 6 6 6 6 6 7 7 7 8 8 8 9 10 10 11 12 11 10 9 8 8 8 8 7 7 6 6 6 5 5 6 6 6 6 6 6 7 7 7 7 7 7 7 7 7 7 7 7 7 7 7 8 8 8 8 8 8 9 9 9 9 9 9 9 9 8 8
8 8 8 7 7 7 7 6 6 6 5 5 5 5 5 5 5 6 6 6 6 7 7 8 8 8 8 9 9 9 9 9 8 8 7 7 6 6 6 6 6 7 7 8 8 9 9 10 10 11 12 11 10 9 8 8 8 7 7 7 6 6 6 6 6 6 6 6 6 6 7 7 7 7 7 7 7 7 7 7 7 7 7 7 7 7 8 8 8 8 8 9 9 9 9 9 9 9 10 10 10 10 9
8 8 8 7 7 7 7 6 6 6 6 5 5 5 5 5 6 6 6 6 6 7 7 8 8 8 9 9 9 9 9 9 8 8 7 6 6 6 6 6 6 7 8 9 9 9 10 10 11 11 11 10 9 8 8 8 7 7 7 6 6 6 6 6 6 6 6 6 7 7 7 7 8 8 7 7 7 7 7 7 7 7 7 8 8 8 8 8 8 9 9 9 9 10 10 10 10 10 11 11 11 11 11
8 8 8 8 7 7 7 6 6 6 6 6 5 5 5 5 6 6 6 6 7 7 7 8 8 8 9 9 10 9 9 9 8 7 6 6 6 6 6 6 7 8 9 9 10 10 11 11 11 11 10 9 9 8 8 7 7 7 6 6 6 6 6 6 6 6 6 6 7 7 7 8 8 8 7 7 7 7 8 8 8 8 8 9 9 9 9 9 10 10 10 10 10 11 11 11 11 12 12 12 12 12 12
8 8 8 8 7 7 7 7 6 6 6 6 6 6 6 6 6 6 6 6 7 7 7 8 8 9 9 10 10 9 9 8 7 6 6 6 6 6 6 7 8 8 9 10 11 11 12 11 11 10 9 9 8 8 7 7 6 6 6 6 6 6 6 6 6 6 6 7 7 7 7 7 7 7 7 7 7 8 8 8 8 9 9 9 10 10 10 11 11 11 11 11 11 11 11 12 12 12 12 12 12 13 13
8 8 7 7 7 7 7 7 6 6 6 6 6 6 6 6 6 6 6 6 6 7 7 8 8 9 10 10 10 9 9 8 7 6 6 6 6 6 7 8 8 9 10 11 11 12 11 11 10 9 9 9 8 7 7 6 6 6 6 6 6 6 6 6 6 6 7 7 7 7 7 7 7 7 7 7 8 8 8 9 9 10 10 10 11 11 12 12 12 11 11 12 12 12 12 12 12 12 12 12 12 12 12
8 8 7 7 7 7 7 7 7 6 6 6 6 6 6 6 6 6 6 6 7 7 8 8 9 10 11 10 10 9 9 8 7 6 6 6 6 7 7 8 9 10 10 11 12 11 11 10 10 9 9 8 8 7 6 6 6 6 6 6 6 6 6 6 6 7 7 7 7 7 7 7 7 7 8 8 8 9 9 10 10 11 11 11 12 12 12 12 12 12 12 12 12 12 12 12 12 12 12 12 12 12 12
8 7 7 7 7 7 7 7 7 7 6 6 6 6 6 6 6 6 6 6 7 8 8 9 10 10 11 11 10 9 8 7 6 6 6 6 7 7 8 9 10 10 11 12 12 11 11 10 9 9 9 8 7 7 6 6 6 6 6 6 6 6 6 7 7 8 8 8 7 7 7 7 8 8 9 9 10 10 11 11 11 12 12 12 12 12 12 12 12 12 12 12 12 12 12 12 12 12 12 12 12 12 12
7 7 7 7 7 7 7 7 7 7 7 6 6 6 6 6 6 6 6 7 8 8 8 9 10 11 10 10 10 9 7 6 6 6 6 6 7 8 9 10 10 11 12 12 11 11 10 9 9 9 8 8 7 7 6 6 6 6 6 6 6 6 7 7 8 8 8 8 7 7 8 8 9 9 10 10 11 11 11 11 11 11 11 11 11 11 11 11 11 11 12 12 12 12 12 12 12 12 12 12 12 12 12
7 7 7 7 7 7 7 7 7 7 7 6 6 6 6 6 6 6 6 7 8 8 9 10 11 11 11 10 9 8 7 6 6 6 6 7 8 9 10 11 11 12 12 12 11 10 10 9 9 8 8 8 7 7 7 7 7 7 7 7 7 7 8 8 8 8 8 8 7 8 8 9 10 10 11 11 11 11 11 11 11 11 11 11 11 11 11 11 11 11 10 10 10 10 10 10 10 10 10 10 10 10 10
7 7 7 7 7 7 7 7 7 7 7 7 6 6 6 6 6 6 7 7 8 9 10 11 11 11 11 10 9 8 7 6 6 6 7 8 9 10 11 11 12 12 12 11 11 10 9 9 9 8 8 7 7 7 7 7 7 7 7 7 8 8 8 9 9 8 8 8 8 8 9 10 10 11 10 10 10 10 11 11 11 10 10 10 10 10 10 10 9 9 9 9 8 8 8 8 8 7 7 7 7 8 8
7 7 7 7 7 7 8 7 7 7 7 7 7 7 6 6 6 7 7 8 9 10 11 11 10 10 11 10 9 7 6 6 6 7 7 8 9 11 12 12 12 12 11 11 10 10 9 9 8 8 7 7 7 7 7 7 7 8 8 8 8 8 9 9 9 8 8 8 9 9 10 10 10 10 10 10 10 10 10 10 10 10 10 9 9 9 9 9 9 9 8 8 8 8 7 7 7 7 7 7 7 7 7
7 7 8 8 8 8 8 8 7 7 7 7 7 7 6 6 7 7 8 9 10 11 12 11 11 10 10 9 8 7 6 6 6 7 8 9 10 11 12 12 12 12 11 11 10 10 9 9 8 8 7 7 7 7 7 7 8 8 8 8 8 9 9 9 9 8 9 9 10 10 10 10 10 9 9 10 10 10 10 10 9 9 9 9 8 8 8 8 8 8 8 8 8 7 7 7 7 7 7 7 7 7 7
7 8 8 8 8 8 8 8 8 7 7 7 7 7 7 7 7 8 9 10 11 11 11 12 11 11 9 8 7 6 6 6 6 7 8 10 11 12 12 12 12 12 11 11 10 10 9 8 8 7 7 7 7 7 7 8 8 8 8 9 9 8 8 8 9 9 9 10 10 10 10 9 9 9 9 9 9 9 9 9 9 8 8 8 7 7 7 7 7 7 7 7 7 7 7 6 6 6 6 6 6 7 7
8 8 8 8 8 8 8 8 8 7 7 7 7 7 7 8 8 9 10 10 11 11 11 11 11 11 9 7 6 6 5 6 7 8 9 11 12 12 12 12 12 12 11 11 10 9 8 8 7 7 7 7 7 7 8 8 8 8 9 8 8 8 8 9 9 9 10 10 10 9 9 8 8 8 8 9 9 9 9 8 8 7 7 6 6 6 6 6 6 6 6 6 6 6 6 6 6 6 6 6 6 6 7
8 8 8 9 9 8 8 8 8 7 7 7 8 8 8 8 9 9 10 11 11 11 11 11 11 10 8 7 6 5 6 6 7 9 10 12 12 12 12 12 12 12 11 10 9 9 8 8 7 7 7 7 7 7 7 8 8 8 8 7 7 8 8 9 9 10 10 10 9 9 8 8 8 8 8 8 8 8 7 7 6 6 6 6 5 5 5 5 5 5 5 5 5 5 5 5 5 5 5 6 6 6 7
8 8 8 9 9 8 8 8 8 7 8 8 8 8 8 9 9 10 11 11 12 11 11 10 10 9 7 6 6 6 6 7 9 10 11 12 12 12 13 13 12 11 11 9 9 8 8 8 8 7 7 7 7 7 8 8 8 7 7 7 8 8 9 9 9 10 10 9 9 8 8 7 7 7 7 7 7 6 6 6 5 5 5 5 4 4 4 4 4 5 5 5 5 5 5 5 5 5 6 6 6 6 7
8 8 8 9 9 9 8 8 8 8 8 8 9 9 9 10 10 10 11 11 12 12 11 10 9 8 6 6 6 6 7 8 9 10 11 12 13 13 13 13 12 11 10 9 8 8 7 8 7 7 7 7 7 8 8 8 8 7 7 8 8 8 9 9 9 10 10 9 8 8 7 7 7 7 7 6 6 5 5 5 5 5 4 4 4 4 5 5 6 6 6 6 6 6 6 6 6 6 6 6 6 7 7
8 8 8 9 9 9 8 8 8 8 8 8 9 9 10 10 10 11 11 11 12 12 12 10 8 6 6 6 6 7 8 9 10 11 12 13 13 13 14 13 11 10 8 8 8 8 8 7 7 7 7 8 8 8 8 8 8 7 8 8 8 8 9 9 10 10 9 8 8 7 7 7 6 6 6 5 5 5 4 4 4 4 4 5 5 6 6 6 7 7 7 6 6 6 6 6 6 6 6 6 7 7 7
9 9 9 9 9 9 9 9 8 8 8 9 9 9 10 10 11 11 12 12 12 11 10 8 7 6 5 5 6 7 8 10 11 12 12 13 14 14 13 12 10 9 8 8 8 8 8 7 7 7 8 8 8 8 8 8 8 8 8 7 7 8 9 9 10 10 9 8 7 7 6 6 6 5 4 4 4 4 4 4 4 5 5 6 6 6 7 7 7 7 7 7 6 6 6 6 6 6 7 7 7 7 7
9 9 9 9 9 9 9 9 9 9 9 9 9 10 10 11 11 12 12 12 12 10 8 7 6 5 5 6 7 8 9 11 12 13 13 13 14 14 13 11 9 7 7 7 8 8 8 7 7 8 8 8 8 8 8 8 8 7 7 7 7 8 9 9 10 9 8 8 7 6 6 5 4 4 4 4 4 4 4 4 5 5 6 6 6 7 7 7 7 7 7 6 6 6 6 6 7 7 7 7 7 7 7
9 9 9 9 9 9 9 10 10 10 10 10 10 10 11 12 12 12 12 12 10 9 7 6 5 5 6 6 7 9 10 12 12 13 15 15 14 12 11 10 8 7 7 8 8 8 8 7 8 8 8 8 8 7 7 7 7 7 7 7 8 8 9 9 9 9 8 7 7 6 6 5 4 4 4 4 4 4 4 5 5 5 6 6 6 6 6 6 6 6 6 6 6 6 6 7 7 8 8 7 7 7 7
9 9 9 9 9 9 10 10 10 10 10 10 11 11 12 12 12 12 11 10 9 7 6 5 5 5 6 7 8 9 11 12 13 13 15 14 13 11 9 9 9 8 8 8 8 7 7 8 8 8 7 7 7 7 7 7 7 7 7 7 8 8 9 9 9 8 7 7 7 6 5 4 4 4 4 4 4 5 5 5 5 6 6 6 6 6 6 6 6 6 6 6 6 6 7 7 8 8 8 8 7 7 7
8 9 9 10 10 10 10 10 10 10 10 11 11 12 12 12 12 11 11 9 7 6 4 4 5 6 7 8 9 10 12 13 14 15 14 11 10 10 9 9 8 8 8 8 8 8 7 8 8 7 7 7 7 7 7 7 7 7 7 7 8 8 8 8 8 7 7 7 6 6 5 5 4 5 5 4 5 5 6 6 6 5 5 5 5 5 5 5 5 5 6 6 7 7 8 8 8 8 8 8 8 8 8
9 9 9 9 10 10 10 10 10 11 11 11 11 12 12 12 12 11 10 8 6 5 4 5 6 7 8 10 11 12 14 14 15 15 14 11 10 10 10 8 7 8 9 9 8 8 8 8 8 8 7 7 6 6 6 7 7 7 7 7 8 8 7 7 7 7 6 6 6 6 5 5 5 5 5 5 5 6 6 6 5 5 5 5 5 5 5 5 5 6 6 7 7 8 8 8 8 8 8 8 8 8 9
8 9 9 9 10 10 10 10 10 11 11 12 12 12 12 12 11 10 8 6 5 5 5 6 7 8 9 11 12 13 14 15 14 14 13 11 10 9 9 7 7 9 10 9 8 7 7 7 7 7 7 6 6 6 7 7 7 7 7 7 7 7 7 7 7 6 7 6 6 5 5 5 5 5 5 5 6 6 6 6 6 5 5 5 5 5 5 5 6 6 7 8 9 9 9 9 8 8 8 9 9 9 9
9 9 9 10 10 10 10 10 11 11 12 12 12 12 12 12 10 8 6 5 5 6 6 7 9 10 10 10 11 12 12 13 13 13 11 11 10 9 8 9 9 9 9 9 8 8 7 7 7 6 7 6 6 7 7 7 6 6 7 7 7 7 7 6 6 6 6 6 5 5 5 5 5 6 6 6 6 6 6 6 6 6 6 5 5 6 6 6 7 8 8 9 9 9 9 9 8 8 9 9 10 10 10
9 9 9 10 10 10 10 10 11 11 12 12 13 13 12 11 9 7 6 6 6 7 8 9 10 11 11 10 10 11 12 12 12 12 10 10 10 10 9 8 8 8 9 8 8 8 8 7 6 5 8 6 5 5 5 6 6 6 7 7 7 6 6 6 6 6 6 5 5 5 5 5 6 6 6 6 6 6 6 6 6 6 6 6 6 6 7 7 8 9 9 9 9 9 9 8 9 9 10 10 10 10 9
9 10 10 10 10 10 10 11 11 11 12 12 13 12 11 10 8 7 7 6 6 7 9 10 11 11 12 12 11 11 11 12 11 11 10 10 9 10 10 8 7 8 9 9 7 6 6 5 5 6 7 6 6 6 5 6 7 7 7 7 7 6 6 6 6 6 6 6 6 6 6 6 6 6 6 6 6 6 6 6 6 6 6 6 7 7 8 9 9 9 9 9 9 8 8 9 9 10 10 10 10 9 8
9 10 10 10 10 10 11 11 11 12 12 13 12 12 10 9 8 7 7 6 7 8 9 10 11 11 11 12 12 12 12 11 11 11 10 10 10 10 9 9 9 8 8 7 6 4 4 5 6 7 6 5 6 7 6 6 7 7 8 7 7 6 6 6 6 6 6 6 6 6 6 7 7 7 7 7 7 6 6 6 6 7 7 7 8 8 9 9 10 10 9 9 8 8 9 9 10 11 11 10 9 9 8
10 10 10 11 11 11 11 11 11 12 13 13 12 11 10 8 7 6 6 7 8 8 9 10 11 12 11 11 12 13 12 11 10 10 11 11 10 10 10 9 9 9 10 10 10 8 6 6 6 6 6 5 5 5 6 6 7 7 8 8 7 7 7 8 8 8 7 7 7 7 8 8 8 8 8 7 7 7 7 7 7 7 8 8 9 9 10 10 9 9 9 9 9 9 10 11 11 11 11 10 9 8 8
10 10 11 11 11 11 11 11 11 12 13 12 12 10 9 7 7 6 6 7 7 8 9 10 11 12 12 11 11 12 12 11 11 11 11 11 11 11 10 10 9 10 10 10 10 10 10 8 7 6 6 6 6 6 6 7 7 8 8 9 9 9 9 10 10 10 9 9 9 9 9 9 9 9 8 8 7 7 7 7 7 8 8 9 9 9 10 9 9 9 9 9 10 10 11 12 12 11 11 9 9 8 8
10 10 11 11 11 11 11 11 12 12 13 12 11 10 8 7 7 7 6 7 7 8 10 10 11 12 12 12 11 12 12 12 12 12 12 11 11 10 10 10 9 9 9 9 9 8 8 8 8 7 7 7 7 7 8 10 10 10 10 11 11 11 12 13 13 12 11 10 10 10 10 9 9 9 8 7 7 7 7 8 8 8 9 9 9 10 9 9 8 8 9 9 10 11 12 12 12 11 10 9 9 9 9
Height
3142 3142 3142 3142 3142 3142 3142 3142 3142 3142 3141 3141 3141 3141 3141 3141 3140 3140 3140 3140 3140 3140 3140 3139 3139 3139 3139 3138 3138 3138 3137 3137 3137 3137 3137 3137 3136 3136 3136 3136 3136 3136 3136 3136 3136 3136 3136 3135 3135 3135 3135 3135 3135 3135 3134 3134 3134 3134 3134 3134 3134 3134 3134 3133 3133 3133 3133 3133 3133 3133 3133 3132 3132 3132 3132 3132 3132 3131 3131 3131 3131 3131 3131 3131 3131 3131 3131 3130 3130 3130 3130 3130 3130 3130 3130 3130 3130 3131 3131 3131 3131 3131 3131
3141 3141 3141 3141 3141 3141 3141 3141 3141 3140 3140 3140 3140 3140 3140 3139 3139 3139 3139 3139 3139 3139 3139 3138 3138 3138 3138 3137 3137 3137 3136 3136 3136 3136 3135 3135 3135 3135 3135 3135 3135 3135 3135 3134 3134 3134 3134 3134 3134 3134 3134 3134 3133 3133 3133 3133 3133 3133 3133 3133 3133 3133 3132 3132 3132 3132 3131 3131 3131 3131 3131 3131 3131 3131 3130 3130 3130 3130 3130 3130 3129 3129 3129 3129 3129 3129 3129 3129 3129 3129 3129 3128 3128 3128 3129 3129 3129 3129 3129 3129 3129 3129 3129
3140 3140 3140 3140 3140 3140 3140 3139 3139 3139 3139 3139 3139 3139 3139 3139 3138 3138 3138 3138 3138 3137 3137 3137 3137 3137 3136 3136 3136 3135 3135 3135 3134 3134 3134 3134 3134 3134 3134 3133 3133 3133 3133 3133 3133 3133 3133 3133 3132 3132 3132 3132 3132 3132 3132 3132 3132 3132 3131 3131 3131 3131 3131 3131 3131 3130 3130 3130 3129 3129 3129 3129 3129 3129 3129 3129 3129 3129 3129 3128 3128 3128 3128 3128 3128 3128 3128 3127 3127 3127 3127 3127 3127 3127 3127 3127 3127 3127 3127 3127 3128 3128 3128
3139 3139 3139 3139 3139 3139 3139 3139 3138 3138 3138 3138 3138 3138 3137 3137 3137 3137 3137 3136 3136 3136 3136 3136 3135 3135 3135 3135 3134 3134 3134 3134 3133 3133 3133 3133 3132 3132 3132 3132 3132 3132 3132 3132 3131 3131 3131 3131 3131 3131 3130 3130 3130 3130 3130 3130 3130 3130 3130 3130 3130 3130 3130 3129 3129 3129 3129 3128 3128 3128 3127 3127 3127 3127 3127 3127 3127 3127 3127 3127 3126 3126 3126 3126 3126 3126 3126 3126 3126 3125 3125 3125 3125 3125 3125 3125 3125 3125 3125 3125 3126 3126 3126
3138 3138 3138 3138 3137 3137 3137 3137 3137 3137 3137 3137 3137 3136 3136 3136 3136 3136 3135 3135 3135 3135 3134 3134 3134 3134 3134 3134 3133 3133 3133 3132 3132 3132 3131 3131 3131 3131 3131 3130 3130 3130 3130 3130 3130 3130 3129 3129 3129 3129 3129 3129 3129 3129 3129 3129 3129 3129 3129 3129 3129 3128 3128 3128 3128 3128 3127 3127 3126 3126 3126 3126 3126 3125 3125 3125 3125 3125 3125 3125 3125 3124 3124 3124 3124 3124 3124 3124 3124 3124 3124 3124 3124 3123 3123 3123 3123 3123 3124 3124 3124 3124 3124
3136 3136 3136 3136 3136 3136 3136 3136 3136 3136 3135 3135 3135 3135 3135 3135 3134 3134 3134 3134 3134 3134 3133 3133 3133 3133 3132 3132 3132 3131 3131 3131 3130 3130 3130 3130 3130 3129 3129 3129 3129 3129 3129 3129 3128 3128 3128 3128 3128 3128 3127 3127 3127 3127 3127 3127 3127 3127 3127 3127 3127 3127 3127 3127 3126 3126 3126 3125 3125 3125 3124 3124 3124 3124 3124 3124 3124 3124 3123 3123 3123 3123 3123 3122 3122 3122 3122 3122 3122 3121 3122 3122 3122 3122 3122 3122 3122 3121 3122 3122 3122 3122 3122
3135 3135 3135 3135 3135 3135 3135 3134 3134 3134 3134 3134 3134 3134 3134 3134 3133 3133 3133 3133 3132 3132 3132 3132 3131 3131 3131 3130 3130 3130 3129 3129 3129 3129 3129 3129 3128 3128 3128 3128 3128 3127 3127 3127 3127 3127 3126 3126 3126 3126 3126 3126 3126 3126 3126 3126 3126 3126 3126 3126 3125 3125 3125 3125 3125 3124 3124 3124 3124 3123 3123 3123 3122 3122 3122 3122 3122 3122 3121 3121 3121 3121 3121 3121 3121 3120 3120 3120 3120 3120 3120 3120 3120 3120 3120 3120 3120 3120 3120 3120 3120 3120 3120
3134 3134 3134 3134 3134 3134 3133 3133 3133 3133 3133 3133 3133 3133 3132 3132 3132 3132 3131 3131 3131 3131 3130 3130 3130 3130 3129 3129 3129 3129 3128 3128 3128 3127 3127 3127 3127 3127 3127 3126 3126 3126 3126 3125 3125 3125 3125 3125 3125 3124 3124 3124 3124 3124 3124 3124 3124 3124 3124 3124 3124 3124 3124 3124 3123 3123 3123 3123 3122 3122 3122 3121 3121 3120 3120 3120 3120 3120 3120 3119 3119 3119 3119 3119 3119 3119 3119 3119 3119 3118 3118 3118 3118 3118 3118 3118 3118 3118 3118 3118 3118 3118 3118
3132 3132 3132 3132 3132 3132 3132 3132 3132 3132 3132 3132 3131 3131 3131 3131 3130 3130 3130 3130 3129 3129 3129 3129 3128 3128 3128 3128 3127 3127 3127 3126 3126 3126 3126 3126 3125 3125 3125 3125 3125 3124 3124 3124 3124 3124 3124 3123 3123 3123 3123 3123 3123 3123 3123 3122 3122 3122 3122 3122 3122 3122 3122 3122 3122 3121 3121 3121 3121 3120 3120 3120 3119 3119 3119 3119 3118 3118 3118 3118 3118 3118 3118 3118 3117 3117 3117 3117 3117 3117 3117 3117 3117 3117 3116 3117 3117 3117 3116 3116 3116 3116 3116
3131 3131 3131 3131 3130 3130 3130 3130 3130 3130 3130 3130 3130 3130 3130 3129 3129 3129 3129 3128 3128 3128 3127 3127 3127 3127 3126 3126 3126 3125 3125 3125 3125 3124 3124 3124 3124 3124 3124 3124 3123 3123 3123 3123 3123 3122 3122 3122 3122 3122 3121 3121 3121 3121 3121 3121 3121 3121 3120 3120 3120 3120 3120 3120 3120 3120 3119 3119 3119 3119 3119 3118 3118 3118 3117 3117 3117 3117 3116 3116 3116 3116 3116 3116 3116 3116 3116 3115 3115 3115 3115 3115 3115 3115 3115 3115 3115 3115 3115 3115 3115 3115 3115
3129 3129 3129 3129 3129 3129 3129 3129 3129 3129 3129 3129 3129 3129 3128 3128 3128 3127 3127 3127 3127 3126 3126 3126 3125 3125 3125 3124 3124 3124 3124 3124 3123 3123 3123 3123 3123 3122 3122 3122 3122 3122 3122 3121 3121 3121 3121 3120 3120 3120 3120 3120 3120 3119 3119 3119 3119 3119 3119 3119 3119 3119 3119 3119 3118 3118 3118 3118 3117 3117 3117 3117 3116 3116 3116 3115 3115 3115 3115 3115 3114 3114 3114 3114 3114 3114 3114 3114 3114 3114 3114 3114 3113 3113 3113 3113 3113 3113 3113 3113 3113 3113 3113
3128 3128 3128 3128 3128 3128 3128 3128 3128 3128 3128 3128 3127 3127 3127 3127 3126 3126 3126 3125 3125 3125 3124 3124 3124 3124 3123 3123 3123 3123 3122 3122 3122 3122 3122 3121 3121 3121 3121 3121 3121 3120 3120 3120 3120 3119 3119 3119 3119 3119 3119 3118 3118 3118 3118 3118 3118 3117 3117 3117 3117 3117 3117 3117 3116 3116 3116 3116 3116 3115 3115 3115 3114 3114 3114 3114 3114 3114 3113 3113 3113 3113 3113 3113 3112 3112 3112 3112 3112 3112 3112 3112 3112 3112 3111 3111 3111 3111 3111 3111 3111 3111 3111
3127 3127 3126 3126 3126 3126 3126 3126 3126 3126 3126 3126 3126 3126 3125 3125 3125 3124 3124 3124 3124 3123 3123 3123 3122 3122 3122 3121 3121 3121 3121 3121 3120 3120 3120 3120 3120 3120 3119 3119 3119 3119 3119 3119 3119 3118 3118 3118 3117 3117 3117 3117 3117 3116 3116 3116 3116 3116 3116 3115 3115 3115 3115 3115 3114 3114 3114 3114 3114 3114 3113 3113 3113 3113 3112 3112 3112 3112 3112 3111 3111 3111 3111 3111 3111 3110 3110 3110 3110 3110 3110 3110 3110 3110 3109 3109 3109 3109 3109 3109 3109 3109 3109
3125 3125 3125 3125 3125 3125 3125 3125 3125 3125 3124 3124 3124 3124 3124 3124 3123 3123 3123 3122 3122 3122 3121 3121 3121 3120 3120 3120 3120 3119 3119 3119 3119 3119 3119 3119 3118 3118 3118 3118 3118 3118 3118 3118 3117 3117 3117 3116 3116 3116 3115 3115 3115 3115 3115 3114 3114 3114 3114 3114 3114 3114 3113 3113 3113 3113 3112 3112 3112 3112 3111 3111 3111 3111 3111 3110 3110 3110 3110 3110 3109 3109 3109 3109 3109 3109 3109 3109 3108 3108 3108 3108 3108 3108 3108 3108 3108 3108 3107 3107 3107 3107 3107
3124 3124 3124 3124 3124 3124 3123 3123 3123 3123 3123 3123 3123 3123 3122 3122 3122 3122 3121 3121 3120 3120 3120 3119 3119 3119 3119 3118 3118 3118 3118 3118 3118 3117 3117 3117 3117 3117 3117 3117 3117 3117 3116 3116 3116 3116 3115 3115 3114 3114 3114 3114 3114 3113 3113 3113 3113 3113 3113 3113 3112 3112 3112 3111 3111 3111 3111 3110 3110 3110 3110 3110 3109 3109 3109 3109 3109 3109 3109 3108 3108 3108 3108 3108 3107 3107 3107 3107 3107 3106 3106 3106 3106 3106 3106 3106 3105 3105 3105 3105 3105 3105 3105
3122 3122 3122 3122 3122 3122 3122 3122 3122 3122 3122 3121 3121 3121 3121 3120 3120 3120 3120 3119 3119 3119 3118 3118 3118 3117 3117 3117 3117 3117 3116 3116 3116 3116 3116 3116 3115 3115 3115 3115 3115 3115 3115 3115 3115 3114 3114 3114 3113 3113 3113 3112 3112 3112 3112 3111 3111 3111 3111 3111 3111 3110 3110 3110 3109 3109 3109 3109 3109 3109 3108 3108 3108 3108 3108 3107 3107 3107 3107 3107 3106 3106 3106 3106 3106 3105 3105 3105 3105 3105 3104 3104 3104 3104 3104 3104 3104 3104 3104 3104 3103 3103 3103
3121 3121 3121 3121 3120 3120 3120 3120 3120 3120 3120 3120 3120 3119 3119 3119 3119 3119 3118 3118 3118 3117 3117 3117 3116 3116 3116 3115 3115 3115 3115 3115 3114 3114 3114 3114 3114 3114 3114 3114 3114 3114 3114 3114 3113 3113 3113 3112 3112 3111 3111 3111 3110 3110 3110 3110 3110 3110 3110 3109 3109 3109 3109 3108 3108 3108 3108 3107 3107 3107 3107 3107 3106 3106 3106 3106 3106 3106 3105 3105 3105 3105 3104 3104 3104 3104 3104 3103 3103 3103 3103 3103 3102 3102 3102 3102 3102 3102 3102 3102 3101 3101 3101
3119 3119 3119 3119 3119 3119 3119 3119 3119 3119 3119 3118 3118 3118 3118 3117 3117 3117 3117 3116 3116 3116 3115 3115 3115 3114 3114 3114 3114 3114 3113 3113 3113 3113 3113 3113 3113 3113 3113 3113 3112 3112 3112 3112 3112 3112 3111 3111 3110 3110 3109 3109 3109 3109 3109 3108 3108 3108 3108 3108 3108 3108 3107 3107 3107 3106 3106 3106 3105 3105 3105 3105 3105 3105 3105 3104 3104 3104 3104 3104 3104 3103 3103 3103 3102 3102 3102 3102 3102 3101 3101 3101 3101 3100 3100 3100 3100 3100 3100 3100 3100 3099 3099
3118 3118 3118 3118 3117 3117 3117 3117 3117 3117 3117 3117 3117 3116 3116 3116 3116 3115 3115 3115 3114 3114 3114 3114 3113 3113 3113 3113 3112 3112 3112 3112 3112 3112 3111 3111 3111 3111 3111 3111 3111 3111 3111 3110 3110 3110 3110 3109 3109 3109 3108 3108 3107 3107 3107 3107 3107 3107 3107 3106 3106 3106 3106 3105 3105 3105 3104 3104 3104 3104 3104 3104 3104 3103 3103 3103 3103 3102 3102 3102 3102 3101 3101 3101 3101 3100 3100 3100 3100 3099 3099 3099 3099 3099 3099 3099 3098 3098 3098 3098 3098 3098 3098
3116 3116 3116 3116 3116 3116 3115 3115 3115 3115 3115 3115 3115 3115 3114 3114 3114 3114 3114 3113 3113 3113 3112 3112 3112 3112 3111 3111 3111 3110 3110 3110 3110 3110 3110 3110 3110 3110 3110 3109 3109 3109 3109 3109 3109 3109 3108 3108 3108 3107 3107 3106 3106 3106 3105 3105 3105 3105 3105 3105 3105 3104 3104 3104 3104 3103 3103 3103 3102 3102 3102 3102 3102 3102 3101 3101 3101 3101 3100 3100 3100 3100 3099 3099 3099 3099 3099 3098 3098 3098 3098 3097 3097 3097 3097 3097 3097 3096 3096 3096 3096 3096 3096
3114 3114 3114 3114 3114 3114 3114 3114 3114 3114 3114 3114 3114 3113 3113 3113 3113 3112 3112 3112 3111 3111 3111 3111 3110 3110 3110 3109 3109 3109 3109 3109 3109 3109 3109 3109 3109 3108 3108 3108 3108 3108 3108 3108 3107 3107 3107 3106 3106 3105 3105 3105 3104 3104 3104 3104 3104 3104 3103 3103 3103 3103 3103 3102 3102 3102 3101 3101 3101 3101 3101 3100 3100 3100 3100 3099 3099 3099 3099 3099 3098 3098 3098 3097 3097 3097 3097 3097 3096 3096 3096 3096 3095 3095 3095 3095 3095 3094 3094 3094 3094 3094 3094
3113 3113 3113 3113 3112 3112 3112 3112 3112 3112 3112 3112 3112 3112 3112 3111 3111 3111 3111 3110 3110 3110 3109 3109 3109 3109 3108 3108 3108 3108 3108 3107 3107 3107 3107 3107 3107 3107 3107 3107 3107 3106 3106 3106 3106 3105 3105 3105 3104 3104 3104 3103 3103 3102 3102 3102 3102 3102 3102 3101 3101 3101 3101 3101 3101 3100 3100 3100 3099 3099 3099 3099 3099 3099 3098 3098 3098 3098 3097 3097 3096 3096 3096 3096 3095 3095 3095 3095 3094 3094 3094 3094 3094 3093 3093 3093 3093 3093 3093 3092 3092 3092 3092
3111 3111 3111 3111 3111 3110 3110 3110 3110 3110 3110 3110 3110 3110 3110 3110 3110 3109 3109 3109 3109 3108 3108 3108 3107 3107 3107 3107 3106 3106 3106 3106 3106 3106 3106 3105 3105 3105 3105 3105 3105 3105 3105 3104 3104 3104 3104 3103 3103 3103 3102 3102 3101 3101 3100 3100 3100 3100 3100 3100 3100 3100 3099 3099 3099 3099 3099 3098 3098 3098 3098 3098 3097 3097 3097 3097 3096 3096 3096 3095 3095 3094 3094 3094 3094 3094 3093 3093 3093 3092 3092 3092 3092 3091 3091 3091 3091 3090 3090 3090 3090 3090 3090
3109 3109 3109 3109 3109 3109 3109 3109 3109 3109 3109 3109 3109 3109 3109 3108 3108 3108 3108 3108 3107 3107 3107 3106 3106 3106 3105 3105 3105 3105 3104 3104 3104 3104 3104 3104 3104 3104 3104 3104 3104 3104 3103 3103 3103 3103 3102 3102 3102 3101 3101 3100 3100 3099 3099 3099 3099 3099 3099 3099 3098 3098 3098 3098 3098 3097 3097 3097 3096 3096 3096 3096 3096 3096 3095 3095 3095 3094 3094 3094 3094 3093 3093 3093 3092 3092 3091 3091 3091 3090 3090 3090 3090 3089 3089 3089 3089 3089 3088 3088 3088 3088 3088
3108 3108 3108 3107 3107 3107 3107 3107 3107 3107 3107 3107 3107 3107 3107 3107 3106 3106 3106 3106 3106 3105 3105 3105 3104 3104 3104 3104 3104 3103 3103 3103 3103 3103 3103 3103 3103 3102 3102 3102 3102 3102 3102 3102 3102 3101 3101 3101 3100 3100 3099 3099 3099 3098 3098 3098 3098 3097 3097 3097 3097 3097 3097 3097 3096 3096 3096 3095 3095 3095 3095 3095 3094 3094 3094 3094 3093 3093 3093 3092 3092 3092 3091 3091 3091 3090 3090 3089 3089 3089 3089 3088 3088 3088 3087 3087 3087 3087 3086 3086 3086 3086 3086
3106 3106 3106 3106 3105 3106 3106 3106 3106 3106 3105 3105 3105 3105 3105 3105 3105 3105 3104 3104 3104 3104 3104 3103 3103 3103 3103 3102 3102 3102 3102 3102 3101 3101 3101 3101 3101 3101 3101 3101 3100 3100 3100 3100 3100 3100 3100 3099 3099 3099 3098 3098 3098 3097 3097 3097 3096 3096 3096 3096 3096 3096 3096 3095 3095 3095 3094 3094 3094 3094 3094 3093 3093 3093 3093 3092 3092 3091 3091 3091 3090 3090 3090 3089 3089 3089 3088 3088 3087 3087 3087 3086 3086 3086 3085 3085 3085 3084 3084 3084 3084 3084 3084
3104 3104 3104 3104 3104 3104 3104 3104 3104 3104 3104 3104 3104 3104 3104 3104 3103 3103 3103 3103 3103 3102 3102 3102 3101 3101 3101 3101 3101 3100 3100 3100 3100 3100 3100 3099 3099 3099 3099 3099 3099 3099 3099 3099 3099 3099 3098 3098 3098 3097 3097 3097 3096 3096 3096 3095 3095 3095 3095 3094 3094 3094 3094 3094 3094 3094 3093 3093 3093 3092 3092 3092 3092 3091 3091 3091 3090 3090 3089 3089 3089 3089 3088 3088 3087 3087 3086 3086 3085 3085 3085 3084 3084 3084 3084 3083 3083 3083 3082 3082 3082 3082 3081
3102 3102 3102 3102 3102 3102 3103 3103 3103 3102 3102 3102 3102 3102 3102 3102 3102 3102 3102 3101 3101 3101 3101 3100 3100 3100 3099 3099 3099 3099 3099 3099 3099 3098 3098 3098 3098 3098 3098 3098 3098 3097 3097 3097 3097 3097 3097 3097 3096 3096 3095 3095 3095 3094 3094 3094 3094 3094 3094 3093 3093 3093 3093 3093 3092 3092 3092 3091 3091 3091 3091 3091 3090 3090 3090 3089 3089 3089 3088 3088 3087 3087 3086 3086 3086 3085 3085 3084 3084 3083 3083 3082 3082 3082 3081 3081 3081 3080 3080 3080 3080 3079 3079
3101 3101 3100 3100 3100 3101 3101 3101 3101 3101 3101 3101 3101 3100 3100 3100 3100 3100 3100 3100 3100 3099 3099 3099 3099 3098 3098 3098 3098 3098 3097 3097 3097 3097 3097 3097 3097 3096 3096 3096 3096 3096 3096 3096 3096 3095 3095 3095 3095 3094 3094 3094 3094 3093 3093 3093 3093 3092 3092 3092 3092 3092 3091 3091 3091 3091 3090 3090 3090 3090 3090 3089 3089 3089 3088 3088 3088 3087 3087 3086 3086 3085 3085 3084 3084 3083 3083 3082 3082 3081 3081 3080 3080 3080 3079 3079 3079 3078 3078 3078 3078 3077 3077
3099 3099 3099 3099 3099 3099 3099 3099 3099 3099 3099 3099 3099 3099 3099 3099 3099 3099 3099 3099 3098 3098 3098 3098 3097 3097 3097 3096 3096 3096 3096 3096 3096 3095 3095 3095 3095 3095 3095 3095 3095 3095 3094 3094 3094 3094 3094 3094 3093 3093 3093 3092 3092 3092 3092 3091 3091 3091 3091 3091 3091 3090 3090 3090 3090 3089 3089 3089 3089 3089 3088 3088 3088 3087 3087 3086 3086 3085 3085 3084 3084 3084 3083 3083 3082 3082 3081 3080 3080 3079 3079 3079 3078 3078 3077 3077 3077 3076 3076 3075 3075 3075 3075
3097 3097 3097 3097 3097 3097 3098 3098 3097 3097 3097 3097 3097 3097 3097 3097 3097 3097 3097 3097 3097 3096 3096 3096 3096 3095 3095 3095 3095 3094 3094 3094 3094 3094 3094 3094 3094 3094 3094 3094 3094 3093 3093 3093 3093 3093 3092 3092 3092 3092 3091 3091 3091 3091 3090 3090 3090 3090 3090 3089 3089 3089 3089 3089 3089 3088 3088 3088 3087 3087 3087 3086 3086 3086 3085 3085 3084 3084 3083 3083 3082 3082 3081 3081 3080 3080 3079 3079 3078 3078 3077 3077 3076 3076 3075 3075 3075 3074 3074 3074 3073 3073 3073
3095 3095 3095 3095 3095 3096 3096 3096 3096 3096 3095 3095 3095 3095 3095 3095 3095 3095 3095 3095 3095 3095 3095 3094 3094 3094 3094 3094 3093 3093 3093 3093 3093 3093 3092 3092 3092 3092 3092 3092 3092 3092 3092 3091 3091 3091 3091 3091 3090 3090 3090 3090 3089 3089 3089 3089 3089 3089 3089 3088 3088 3088 3088 3087 3087 3087 3086 3086 3086 3085 3085 3085 3084 3084 3084 3083 3083 3082 3082 3081 3081 3080 3080 3079 3079 3078 3078 3077 3076 3076 3075 3075 3074 3074 3074 3073 3073 3072 3072 3072 3071 3071 3071
3094 3094 3094 3094 3094 3094 3094 3094 3094 3094 3094 3094 3094 3094 3094 3094 3094 3094 3094 3094 3093 3093 3093 3093 3093 3092 3092 3092 3092 3092 3092 3091 3091 3091 3091 3091 3091 3091 3091 3091 3091 3090 3090 3090 3090 3090 3089 3089 3089 3089 3089 3089 3088 3088 3088 3088 3088 3087 3087 3087 3087 3086 3086 3086 3085 3085 3085 3085 3084 3084 3084 3083 3083 3083 3082 3082 3081 3081 3080 3080 3079 3079 3078 3078 3077 3076 3076 3075 3075 3074 3074 3073 3072 3072 3072 3071 3071 3070 3070 3070 3069 3069 3069
3092 3092 3092 3092 3092 3092 3092 3092 3092 3092 3092 3092 3092 3092 3092 3092 3092 3092 3092 3092 3092 3092 3091 3091 3091 3091 3091 3090 3090 3090 3090 3090 3090 3089 3089 3089 3089 3089 3089 3089 3089 3089 3089 3089 3089 3088 3088 3088 3088 3088 3088 3087 3087 3087 3087 3086 3086 3086 3086 3086 3085 3085 3085 3084 3084 3084 3084 3083 3083 3083 3082 3082 3082 3081 3081 3080 3080 3079 3079 3078 3078 3077 3077 3076 3075 3075 3074 3074 3073 3072 3072 3071 3071 3070 3070 3069 3069 3069 3068 3068 3067 3067 3067
3090 3090 3090 3090 3090 3090 3090 3090 3091 3091 3090 3090 3090 3090 3090 3090 3090 3090 3090 3090 3090 3090 3090 3089 3089 3089 3089 3089 3089 3089 3089 3088 3088 3088 3088 3088 3088 3088 3088 3088 3088 3087 3087 3087 3087 3087 3087 3087 3087 3087 3087 3086 3086 3086 3086 3085 3085 3085 3085 3084 3084 3084 3084 3083 3083 3083 3082 3082 3082 3082 3081 3081 3080 3080 3079 3079 3079 3078 3077 3077 3076 3076 3075 3074 3074 3074 3073 3072 3072 3071 3070 3070 3069 3069 3068 3068 3067 3067 3066 3066 3065 3065 3064
3088 3088 3088 3088 3088 3089 3089 3089 3089 3089 3089 3089 3089 3089 3089 3088 3088 3088 3088 3088 3089 3088 3088 3088 3088 3088 3088 3087 3087 3087 3087 3087 3087 3087 3087 3086 3086 3086 3086 3086 3086 3086 3086 3086 3086 3086 3086 3086 3086 3086 3085 3085 3085 3085 3085 3084 3084 3084 3084 3084 3083 3083 3083 3082 3082 3082 3081 3081 3081 3080 3080 3079 3079 3079 3078 3078 3077 3077 3076 3076 3075 3074 3074 3074 3073 3072 3072 3071 3070 3070 3069 3069 3068 3067 3067 3066 3065 3065 3065 3064 3064 3063 3063
3086 3086 3086 3086 3087 3087 3087 3087 3087 3087 3087 3087 3087 3087 3087 3087 3086 3086 3087 3087 3087 3087 3086 3086 3086 3086 3086 3086 3086 3086 3086 3086 3085 3085 3085 3085 3085 3085 3085 3085 3084 3084 3084 3084 3084 3084 3084 3084 3084 3084 3084 3084 3084 3084 3084 3084 3083 3083 3083 3083 3082 3082 3081 3081 3081 3081 3080 3080 3079 3079 3079 3078 3078 3077 3077 3076 3076 3075 3075 3074 3074 3074 3073 3072 3072 3071 3070 3070 3069 3069 3068 3067 3067 3066 3065 3065 3064 3064 3063 3062 3062 3061 3061
3084 3084 3084 3084 3085 3085 3085 3085 3085 3085 3085 3085 3085 3085 3085 3085 3085 3085 3085 3085 3085 3085 3085 3085 3085 3084 3084 3084 3084 3084 3084 3084 3084 3084 3084 3084 3083 3084 3084 3083 3083 3083 3083 3083 3083 3083 3083 3083 3083 3083 3083 3083 3083 3083 3083 3083 3082 3082 3082 3082 3081 3081 3080 3080 3080 3079 3079 3079 3079 3078 3078 3077 3077 3076 3076 3075 3075 3074 3074 3073 3073 3072 3072 3071 3070 3070 3069 3069 3068 3067 3067 3066 3065 3065 3064 3064 3063 3062 3061 3061 3060 3059 3059
3082 3082 3083 3083 3083 3083 3083 3083 3083 3083 3083 3083 3083 3083 3083 3083 3083 3083 3083 3083 3083 3083 3083 3083 3083 3083 3083 3083 3083 3083 3083 3083 3082 3082 3082 3082 3082 3082 3082 3082 3082 3082 3082 3082 3082 3082 3082 3082 3082 3082 3082 3082 3082 3082 3082 3082 3081 3081 3081 3080 3080 3080 3079 3079 3079 3079 3078 3078 3077 3077 3076 3076 3075 3075 3074 3074 3074 3073 3073 3072 3071 3071 3070 3070 3069 3069 3068 3067 3067 3066 3065 3065 3064 3063 3063 3062 3061 3061 3060 3059 3059 3058 3057
3080 3081 3081 3081 3081 3081 3081 3081 3081 3081 3081 3082 3082 3082 3082 3082 3081 3081 3081 3082 3082 3082 3082 3081 3081 3081 3081 3081 3081 3081 3081 3081 3081 3081 3080 3080 3080 3080 3080 3080 3080 3080 3080 3080 3080 3080 3081 3081 3081 3081 3081 3081 3081 3081 3081 3080 3080 3080 3080 3079 3079 3079 3079 3078 3078 3077 3077 3076 3076 3075 3075 3075 3074 3074 3074 3073 3073 3072 3071 3071 3070 3069 3069 3068 3068 3067 3066 3066 3065 3065 3064 3063 3063 3062 3061 3060 3060 3059 3058 3058 3057 3056 3055
3079 3079 3079 3079 3079 3079 3079 3079 3079 3080 3080 3080 3080 3080 3080 3080 3080 3080 3080 3080 3080 3080 3080 3080 3080 3079 3079 3080 3080 3080 3079 3079 3079 3079 3079 3079 3079 3079 3079 3079 3079 3079 3079 3079 3079 3079 3079 3079 3080 3080 3080 3080 3080 3080 3079 3079 3079 3079 3079 3079 3078 3078 3077 3077 3076 3076 3076 3075 3075 3074 3074 3074 3073 3073 3072 3072 3071 3071 3070 3069 3069 3068 3067 3067 3066 3065 3065 3064 3064 3063 3062 3062 3061 3060 3059 3059 3058 3057 3056 3056 3055 3054 3054
3077 3077 3077 3077 3077 3077 3077 3078 3078 3078 3078 3078 3078 3078 3078 3078 3078 3078 3078 3078 3078 3078 3078 3078 3078 3078 3078 3078 3078 3078 3078 3078 3078 3078 3077 3077 3077 3077 3077 3077 3078 3078 3078 3078 3078 3078 3078 3078 3079 3079 3079 3079 3079 3079 3079 3078 3078 3078 3078 3077 3077 3077 3076 3076 3075 3075 3074 3074 3074 3073 3073 3072 3072 3072 3071 3070 3070 3069 3069 3068 3067 3067 3066 3065 3064 3064 3063 3062 3062 3061 3060 3060 3059 3058 3058 3057 3056 3055 3055 3054 3053 3053 3052
3075 3075 3075 3075 3075 3076 3076 3076 3076 3076 3076 3076 3076 3076 3076 3076 3076 3076 3076 3076 3076 3076 3076 3076 3077 3077 3077 3077 3077 3076 3076 3076 3076 3076 3076 3076 3075 3075 3076 3076 3076 3076 3076 3076 3077 3077 3077 3077 3077 3077 3077 3078 3078 3077 3077 3077 3077 3077 3076 3076 3076 3075 3075 3074 3074 3074 3073 3073 3073 3072 3072 3071 3071 3070 3070 3069 3069 3068 3067 3067 3066 3065 3064 3064 3063 3062 3061 3061 3060 3059 3059 3058 3057 3057 3056 3055 3054 3054 3053 3052 3051 3051 3050
3073 3073 3074 3074 3074 3074 3074 3074 3074 3074 3074 3074 3074 3075 3075 3075 3074 3074 3074 3075 3074 3074 3074 3075 3075 3075 3075 3075 3075 3075 3075 3075 3075 3074 3074 3074 3074 3074 3074 3074 3074 3075 3075 3075 3075 3075 3076 3076 3076 3076 3076 3076 3076 3076 3076 3076 3076 3075 3075 3075 3074 3074 3074 3073 3073 3073 3072 3072 3071 3071 3070 3070 3069 3069 3069 3068 3067 3067 3066 3065 3064 3064 3063 3062 3061 3060 3060 3059 3058 3058 3057 3056 3056 3055 3054 3054 3053 3052 3051 3050 3049 3049 3048
3071 3072 3072 3072 3072 3072 3072 3072 3072 3072 3072 3073 3073 3073 3073 3073 3073 3073 3073 3073 3073 3073 3073 3073 3074 3074 3074 3074 3074 3074 3073 3073 3073 3073 3073 3073 3072 3072 3073 3073 3073 3073 3074 3074 3074 3074 3074 3075 3075 3075 3075 3075 3075 3075 3075 3075 3074 3074 3074 3074 3073 3073 3073 3072 3072 3071 3071 3070 3070 3069 3069 3069 3068 3068 3067 3066 3066 3065 3064 3064 3063 3062 3061 3060 3060 3059 3059 3058 3057 3057 3056 3055 3054 3054 3053 3052 3051 3050 3050 3049 3048 3047 3046
3070 3070 3070 3070 3070 3070 3070 3070 3070 3070 3071 3071 3071 3071 3071 3071 3071 3071 3071 3071 3071 3071 3071 3072 3072 3072 3072 3072 3072 3072 3072 3072 3072 3071 3071 3071 3071 3071 3071 3072 3072 3072 3072 3072 3073 3073 3073 3074 3074 3074 3074 3074 3074 3074 3074 3074 3073 3073 3073 3072 3072 3072 3071 3071 3071 3070 3070 3069 3069 3068 3068 3067 3067 3066 3066 3065 3064 3064 3063 3062 3061 3060 3060 3059 3059 3058 3057 3057 3056 3055 3054 3054 3053 3052 3052 3051 3050 3049 3048 3047 3046 3045 3044
3068 3068 3068 3068 3069 3069 3069 3069 3069 3069 3069 3069 3069 3069 3069 3069 3069 3069 3069 3069 3070 3070 3070 3070 3070 3070 3070 3070 3071 3070 3070 3070 3070 3070 3069 3069 3069 3069 3070 3070 3070 3071 3071 3071 3071 3072 3072 3072 3072 3072 3072 3072 3073 3073 3073 3072 3072 3072 3072 3071 3071 3070 3070 3070 3069 3069 3068 3068 3067 3067 3066 3066 3065 3065 3064 3064 3063 3062 3061 3061 3060 3059 3059 3058 3057 3057 3056 3055 3055 3054 3053 3053 3052 3051 3050 3049 3048 3047 3046 3045 3044 3043 3042
3066 3066 3066 3066 3067 3067 3067 3067 3067 3067 3067 3068 3068 3068 3068 3068 3068 3068 3068 3068 3068 3068 3069 3069 3069 3069 3069 3069 3069 3069 3069 3069 3069 3068 3068 3068 3068 3068 3069 3069 3069 3069 3069 3070 3070 3070 3070 3070 3071 3071 3071 3071 3071 3071 3071 3071 3071 3070 3070 3070 3069 3069 3069 3069 3068 3068 3067 3067 3066 3066 3065 3065 3064 3064 3063 3062 3062 3061 3060 3060 3059 3059 3058 3057 3056 3055 3055 3054 3053 3053 3052 3051 3050 3049 3048 3047 3046 3045 3044 3043 3042 3041 3040
3064 3064 3064 3065 3065 3065 3065 3065 3065 3065 3066 3066 3066 3066 3066 3066 3066 3066 3066 3067 3067 3067 3067 3067 3067 3067 3067 3067 3067 3067 3067 3067 3067 3067 3066 3067 3067 3067 3067 3068 3068 3068 3068 3069 3069 3069 3069 3069 3069 3070 3070 3070 3070 3070 3070 3070 3069 3069 3069 3069 3068 3068 3068 3067 3067 3066 3066 3065 3065 3065 3064 3064 3063 3063 3062 3061 3060 3060 3059 3059 3058 3057 3057 3056 3055 3054 3053 3053 3052 3051 3050 3049 3048 3047 3046 3045 3044 3043 3042 3041 3040 3039 3038
3063 3063 3063 3063 3063 3063 3063 3064 3064 3064 3064 3064 3064 3064 3064 3064 3064 3064 3065 3065 3065 3065 3066 3066 3066 3066 3065 3066 3066 3066 3065 3065 3065 3065 3065 3065 3065 3065 3066 3066 3066 3067 3067 3067 3067 3068 3068 3068 3068 3069 3069 3069 3069 3069 3069 3068 3068 3068 3067 3067 3067 3067 3066 3066 3066 3065 3065 3064 3064 3064 3063 3063 3062 3061 3060 3060 3059 3059 3058 3058 3057 3056 3055 3054 3054 3053 3052 3051 3050 3049 3048 3047 3046 3045 3044 3043 3042 3041 3040 3039 3038 3037 3036
3061 3061 3061 3061 3061 3062 3062 3062 3062 3062 3062 3062 3062 3063 3063 3063 3063 3063 3063 3064 3064 3064 3064 3064 3064 3064 3064 3064 3064 3064 3064 3064 3064 3064 3064 3064 3064 3064 3064 3065 3065 3065 3065 3066 3066 3066 3067 3067 3067 3067 3067 3067 3067 3067 3067 3067 3067 3066 3066 3066 3066 3065 3065 3065 3064 3064 3064 3063 3063 3062 3062 3061 3060 3060 3059 3059 3058 3058 3057 3056 3055 3054 3054 3053 3052 3051 3050 3049 3048 3047 3046 3045 3044 3043 3042 3041 3040 3039 3038 3037 3036 3034 3034
3059 3059 3059 3059 3060 3060 3060 3060 3060 3060 3060 3061 3061 3061 3061 3061 3061 3061 3062 3062 3062 3063 3063 3063 3063 3063 3063 3062 3062 3063 3063 3063 3062 3063 3063 3063 3063 3063 3063 3064 3064 3064 3064 3064 3065 3065 3065 3066 3066 3066 3066 3066 3066 3066 3066 3065 3065 3065 3065 3064 3064 3064 3064 3064 3063 3063 3062 3062 3061 3061 3060 3060 3059 3059 3058 3058 3057 3056 3056 3055 3054 3053 3052 3051 3050 3049 3049 3048 3047 3045 3044 3043 3042 3041 3040 3039 3038 3037 3036 3034 3033 3032 3031
3057 3057 3058 3058 3058 3058 3058 3059 3059 3059 3059 3059 3059 3059 3059 3059 3059 3060 3060 3060 3061 3061 3061 3061 3061 3061 3061 3061 3061 3061 3061 3061 3061 3061 3061 3061 3061 3062 3062 3062 3063 3063 3063 3063 3064 3064 3064 3064 3064 3065 3064 3064 3064 3064 3064 3064 3064 3064 3063 3063 3063 3063 3062 3062 3062 3061 3061 3061 3060 3060 3059 3059 3058 3057 3057 3056 3056 3055 3054 3053 3052 3051 3050 3049 3049 3048 3047 3046 3045 3044 3043 3041 3040 3039 3038 3037 3036 3035 3034 3032 3031 3030 3029
3055 3056 3056 3056 3056 3057 3057 3057 3057 3057 3057 3057 3057 3057 3057 3058 3058 3058 3059 3059 3060 3060 3060 3060 3060 3060 3060 3060 3059 3059 3059 3059 3059 3060 3060 3060 3060 3060 3061 3061 3061 3062 3062 3062 3063 3063 3063 3063 3063 3063 3063 3063 3063 3063 3063 3063 3062 3062 3062 3062 3062 3061 3061 3061 3060 3060 3060 3059 3059 3059 3058 3057 3057 3056 3055 3055 3054 3054 3053 3051 3050 3049 3049 3048 3047 3046 3045 3044 3043 3042 3041 3039 3038 3037 3036 3035 3034 3033 3031 3030 3029 3028 3027
3054 3054 3054 3054 3054 3055 3055 3055 3055 3055 3055 3055 3056 3056 3056 3056 3056 3057 3057 3058 3058 3058 3059 3059 3059 3058 3058 3058 3058 3058 3058 3058 3058 3059 3059 3059 3059 3059 3059 3060 3060 3060 3061 3061 3061 3061 3061 3061 3062 3062 3062 3062 3061 3061 3061 3061 3061 3061 3061 3061 3061 3060 3060 3060 3059 3059 3059 3058 3058 3057 3056 3056 3055 3055 3054 3054 3053 3052 3051 3050 3049 3048 3047 3046 3045 3044 3043 3042 3041 3040 3039 3038 3037 3035 3034 3033 3032 3031 3029 3029 3027 3026 3025
3052 3052 3052 3053 3053 3053 3054 3054 3054 3054 3054 3054 3054 3054 3054 3055 3055 3055 3056 3056 3057 3057 3057 3057 3057 3057 3057 3057 3057 3056 3056 3057 3057 3057 3057 3058 3058 3058 3059 3059 3059 3059 3059 3060 3060 3060 3060 3060 3060 3060 3060 3060 3060 3060 3060 3060 3060 3060 3060 3060 3059 3059 3059 3059 3058 3058 3057 3057 3056 3056 3055 3054 3054 3054 3053 3052 3051 3050 3049 3048 3047 3046 3046 3045 3044 3043 3042 3040 3039 3038 3037 3036 3035 3034 3032 3031 3030 3029 3028 3027 3025 3024 3023
3050 3050 3050 3051 3051 3052 3052 3052 3052 3052 3052 3053 3053 3053 3053 3053 3054 3054 3054 3055 3055 3055 3055 3055 3055 3055 3055 3055 3055 3055 3055 3055 3056 3056 3056 3057 3057 3057 3057 3058 3058 3058 3059 3059 3059 3059 3059 3059 3059 3059 3059 3059 3059 3059 3059 3059 3059 3059 3059 3059 3059 3058 3058 3057 3057 3056 3056 3055 3055 3054 3054 3053 3053 3052 3051 3051 3050 3049 3048 3047 3046 3045 3044 3043 3042 3041 3040 3039 3038 3037 3035 3034 3033 3032 3031 3029 3028 3027 3026 3025 3024 3022 3021
3048 3049 3049 3049 3050 3050 3050 3050 3050 3051 3051 3051 3051 3051 3052 3052 3052 3053 3053 3053 3054 3054 3054 3054 3054 3054 3054 3054 3054 3054 3054 3054 3054 3055 3055 3055 3056 3056 3056 3057 3057 3058 3058 3058 3058 3058 3058 3058 3058 3058 3058 3058 3058 3058 3058 3058 3058 3058 3058 3058 3057 3057 3056 3056 3055 3055 3054 3054 3053 3053 3052 3052 3051 3051 3050 3049 3048 3047 3046 3045 3044 3044 3043 3042 3041 3040 3039 3038 3036 3035 3034 3032 3031 3030 3029 3028 3026 3025 3024 3023 3022 3020 3019
3046 3047 3047 3048 3048 3048 3049 3049 3049 3049 3049 3049 3050 3050 3050 3050 3051 3051 3051 3052 3052 3052 3053 3053 3053 3053 3053 3053 3053 3053 3053 3053 3053 3054 3054 3054 3055 3055 3055 3056 3056 3056 3057 3057 3057 3057 3057 3057 3057 3057 3057 3057 3057 3057 3057 3057 3057 3057 3057 3056 3056 3055 3055 3054 3054 3054 3053 3052 3052 3051 3051 3050 3050 3049 3049 3048 3047 3046 3045 3044 3043 3043 3042 3041 3039 3038 3037 3036 3034 3033 3032 3031 3029 3028 3027 3026 3024 3023 3022 3021 3019 3018 3017
3044 3045 3045 3046 3046 3046 3047 3047 3047 3048 3048 3048 3049 3049 3049 3049 3050 3050 3050 3050 3050 3051 3051 3051 3051 3051 3051 3051 3051 3051 3051 3052 3052 3053 3053 3054 3054 3054 3054 3055 3055 3056 3056 3056 3056 3056 3056 3056 3056 3056 3056 3056 3056 3056 3056 3056 3056 3056 3055 3055 3055 3054 3054 3054 3053 3052 3052 3051 3050 3050 3049 3049 3048 3048 3047 3046 3045 3044 3044 3043 3042 3041 3040 3039 3038 3037 3036 3034 3033 3031 3030 3029 3028 3026 3025 3024 3022 3021 3020 3019 3018 3016 3015
3043 3043 3044 3044 3044 3045 3045 3045 3046 3046 3046 3047 3047 3047 3048 3048 3049 3049 3049 3049 3049 3049 3050 3050 3050 3050 3050 3050 3050 3050 3050 3051 3051 3052 3052 3053 3053 3054 3054 3054 3054 3055 3055 3055 3055 3055 3055 3055 3055 3055 3055 3055 3055 3055 3054 3055 3055 3055 3054 3054 3054 3054 3053 3052 3052 3051 3051 3050 3049 3049 3048 3047 3047 3046 3045 3045 3044 3043 3043 3042 3041 3040 3039 3038 3037 3035 3034 3033 3031 3030 3029 3027 3026 3024 3023 3022 3020 3019 3018 3017 3016 3014 3013